星链-30551 (STARLINK-30551 )

导读 | 豆包AI

STARLINK-30551是美国太空探索技术公司Starlink卫星互联网项目的一颗卫星,于2023年10月18日发射升空,属于SpaceX部署的星link星座组网卫星之一,主要用于为全球提供高速低延迟互联网接入服务,进一步拓展星链系统的全球覆盖范围与服务能力。

基本信息
目录编号:
58083
目录名称:
STARLINK-30551
国际标识:
2023-160J
轨道中心:
EARTH
卫星名称:
星链-30551
卫星全名:
星链-30551 (STARLINK-30551 )
卫星状态:
在轨 (已飞行925 天)
发射日期:
2023-10-18 UTC
国别 :
美国 (US)
星等 :
--
轨道信息
数据来源 国际轨道数据
星历时间: 2026-04-30T11:09:27+0800
14小时前
查看轨道信息
半长轴: 6861.191km
偏心率: 0.0001107
轨道倾角: 43.003°
近地点辐角 278.493°
升交点赤经 150.733°
平近点角 81.580°
近地点: 482.294km
远地点: 483.814km
周期: 94.267分钟
每日圈数: 15.275784
详细信息
固有亮度:
5
最大亮度:
0.3
卫星平台:
Starlink v2.0 mini
覆盖范围:
全球
运营商:
太空探索技术公司
运营商所在国:
美国
制造商(研发单位):
太空探索技术公司
制造商所在国:
美国
使用方式:
暂无
卫星简介
星链(Starlink)计划是由太空探索技术公司(SpaceX)提出的一个巨型低轨卫星互联网星座项目,计划在2019年至2024年间在太空搭建由约1.2万颗卫星组成的“星链”网络,其中1584颗将部署在地球上空550千米处的近地轨道,并从2020年开始工作。该卫星仍在工作。
2D轨道图
3D轨道图
轨道高度分析图
轨道倾角分析图
轨道综合分析图
查看轨道综合分析图